Location: Cathedral Gorge
(37.8167°N, 114.4167°W)
Time: 22:54:19
(UTC-07:00)

Envisat - Visible Passes

Search period start: 17 October 2017 00:00
Search period end: 27 October 2017 00:00
Orbit: 764 x 766 km, 98.2° (Epoch: 17 October)

Date Brightness Start Highest point End Pass type
(mag) Time Alt. Az. Time Alt. Az. Time Alt. Az.
17 Oct 4.4 20:29:44 29° N 20:29:44 29° N 20:32:10 10° NNW visible
18 Oct 4.4 19:52:45 25° NNE 19:52:45 25° NNE 19:55:09 10° N visible
18 Oct 5.8 21:32:58 12° NW 21:32:58 12° NW 21:33:34 10° NW visible
19 Oct 4.8 19:15:46 15° NE 19:15:46 15° NE 19:17:23 10° NNE visible
19 Oct 5.1 20:55:59 21° NNW 20:55:59 21° NNW 20:57:39 10° NNW visible
20 Oct 4.6 20:19:00 24° N 20:19:00 24° N 20:21:02 10° N visible
21 Oct 4.6 19:42:01 19° NNE 19:42:01 19° NNE 19:43:50 10° N visible
21 Oct 5.8 21:22:14 13° NW 21:22:14 13° NW 21:22:48 10° NW visible
22 Oct 5.0 19:05:02 11° NE 19:05:02 11° NE 19:05:38 10° NNE visible
22 Oct 5.1 20:45:15 19° NNW 20:45:15 19° NNW 20:46:38 10° NNW visible
23 Oct 4.8 20:08:16 20° N 20:08:16 20° N 20:09:51 10° N visible
24 Oct 4.9 19:31:16 15° NNE 19:31:16 15° NNE 19:32:27 10° NNE visible
24 Oct 5.7 21:11:29 12° NNW 21:11:29 12° NNW 21:11:56 10° NNW visible
25 Oct 5.2 20:34:30 16° NNW 20:34:30 16° NNW 20:35:34 10° NNW visible
26 Oct 5.0 19:57:30 16° N 19:57:30 16° N 19:58:36 10° N visible
